User: anonymous   Login
Location: Caltech
(34.1382°N, 118.1253°W)
Time: 14:53:49
(UTC-07:00)
Language:

Cosmos 2219 Rocket - Orbit

View from above orbital plane
View from above orbital plane
View from above satellite
View from above satellite

Ground track
Ground track

The orbit data is extracted from the following two-line orbital elements,

1 22220U 92076B   16125.64299935 -.00000200 +00000-0 -76584-4 0  9992
2 22220 071.0001 199.1970 0012963 185.6247 280.4155 14.16394914212595
Epoch (UTC): 04 May 2016 15:25:55
Eccentricity: 0.0012963
inclination: 71.0001°
perigee height: 828 km
apogee height: 847 km
right ascension of ascending node: 199.1970°
argument of perigee: 185.6247°
revolutions per day: 14.16394914
mean anomaly at epoch: 280.4155°
orbit number at epoch: 21259

The dashed part of the orbit path shows where the satellite is in the earth's shadow,  

DLR